Bellingham, WA

7:49 AM PDT on July 21, 2017 (GMT -0700)
Bellingham International

Weather History for KBLI - October, 2013

Change the Weather History Date:

Sunday, October 6, 2013

  Actual Average Record
Temperature  
Mean Temperature 56 °F 52 °F  
Max Temperature 71 °F 61 °F 75 °F (1952)
Min Temperature 41 °F 43 °F 31 °F (1974)
Degree Days  
Heating Degree Days 9 13  
Month to date heating degree days 81 74  
Cooling Degree Days 0 0  
Month to date cooling degree days 0 0  
Year to date cooling degree days 95 42  
Growing Degree Days 6 (Base 50)    
Moisture  
Dew Point 44 °F    
Average Humidity 67    
Maximum Humidity 100    
Minimum Humidity 33    
Precipitation  
Precipitation T in 0.09 in 1.29 in (1981)
Month to date precipitation 0.67 0.49  
Year to date precipitation 21.17 22.62  
Sea Level Pressure  
Sea Level Pressure 30.03 in    
Wind  
Wind Speed 6 mph (SSE)    
Max Wind Speed 22 mph    
Max Gust Speed 32 mph    
Visibility 5 miles    
Events Fog    
T = Trace of Precipitation, MM = Missing Value Source: NWS Daily Summary

Daily Weather History Graph

Daily Weather History Graph

Search for Another Location

Airport or City:

Trip Planner

Search our weather history database for the weather conditions in past years. The results will help you decide how hot, cold, wet, or windy it might be!

Date:

Astronomy

Oct. 06, 2013 Rise Set
Actual Time 7:17 AM PDT 6:37 PM PDT
Civil Twilight 6:46 AM PDT 7:09 PM PDT
Nautical Twilight 6:09 AM PDT 7:45 PM PDT
Astronomical Twilight 5:32 AM PDT 8:22 PM PDT
Moon 9:19 AM PDT (10/6) 7:27 PM PDT (10/6)
Length of Visible Light 12h 23m
Length of Day
11h 20m
Waxing Crescent, 4% of the Moon is Illuminated
Oct 6
Waxing Crescent
Oct 11
First Quarter
Oct 18
Full
Oct 26
Last Quarter
Nov 3
New

Hourly Weather History & Observations

Time (PDT) Temp. Dew Point Humidity Pressure Visibility Wind Dir Wind Speed Gust Speed Precip Events Conditions
12:33 AM 46.4 °F 44.6 °F 93% 30.13 in 1.5 mi Calm Calm - N/A   Clear
12:35 AM 46.4 °F 44.6 °F 93% 30.13 in 0.8 mi Calm Calm - N/A   Mist
12:43 AM 46.4 °F 44.6 °F 93% 30.13 in 0.5 mi Calm Calm - N/A Fog Fog
12:45 AM 48.2 °F 44.6 °F 87% 30.13 in 1.0 mi Calm Calm - N/A   Mist
12:48 AM 48.2 °F 46.4 °F 93% 30.13 in 2.5 mi Calm Calm - N/A   Partly Cloudy
12:53 AM 48.0 °F 46.0 °F 93% 30.15 in 5.0 mi Calm Calm - N/A   Partly Cloudy
1:25 AM 46.4 °F 44.6 °F 93% 30.12 in 1.8 mi Calm Calm - N/A   Clear
1:36 AM 46.4 °F 44.6 °F 93% 30.12 in 0.8 mi Calm Calm - N/A   Clear
1:42 AM 46.4 °F 44.6 °F 93% 30.12 in 2.5 mi Calm Calm - N/A   Clear
1:51 AM 46.4 °F 44.6 °F 93% 30.12 in 1.0 mi Calm Calm - N/A   Clear
1:53 AM 46.9 °F 45.0 °F 93% 30.14 in 1.0 mi Calm Calm - N/A   Clear
1:58 AM 46.4 °F 44.6 °F 93% 30.11 in 3.0 mi Calm Calm - N/A   Clear
2:06 AM 46.4 °F 44.6 °F 93% 30.11 in 2.0 mi Calm Calm - N/A   Clear
2:16 AM 46.4 °F 44.6 °F 93% 30.11 in 4.0 mi Calm Calm - N/A   Clear
2:18 AM 44.6 °F 44.6 °F 100% 30.11 in 1.5 mi Calm Calm - N/A   Partly Cloudy
2:34 AM 46.4 °F 44.6 °F 93% 30.11 in 4.0 mi Calm Calm - N/A   Partly Cloudy
2:53 AM 46.0 °F 44.1 °F 93% 30.12 in 4.0 mi Calm Calm - N/A   Clear
3:05 AM 44.6 °F 44.6 °F 100% 30.09 in 1.5 mi Calm Calm - N/A   Partly Cloudy
3:16 AM 46.4 °F 44.6 °F 93% 30.09 in 4.0 mi Calm Calm - N/A   Clear
3:44 AM 44.6 °F 42.8 °F 93% 30.08 in 2.0 mi Calm Calm - N/A   Clear
3:53 AM 46.0 °F 44.1 °F 93% 30.10 in 9.0 mi Calm Calm - N/A   Clear
4:13 AM 44.6 °F 42.8 °F 93% 30.07 in 2.0 mi Calm Calm - N/A   Partly Cloudy
4:28 AM 44.6 °F 42.8 °F 93% 30.07 in 9.0 mi Calm Calm - N/A   Clear
4:53 AM 44.1 °F 42.1 °F 93% 30.08 in 5.0 mi Calm Calm - N/A   Clear
4:56 AM 44.6 °F 42.8 °F 93% 30.05 in 1.5 mi Calm Calm - N/A   Clear
5:02 AM 44.6 °F 42.8 °F 93% 30.05 in 0.5 mi Calm Calm - N/A Fog Fog
5:08 AM 44.6 °F 42.8 °F 93% 30.05 in 1.0 mi Calm Calm - N/A   Clear
5:14 AM 44.6 °F 42.8 °F 93% 30.05 in 3.0 mi Calm Calm - N/A   Clear
5:20 AM 42.8 °F 42.8 °F 100% 30.05 in 1.8 mi Calm Calm - N/A   Clear
5:24 AM 42.8 °F 42.8 °F 100% 30.05 in 1.0 mi Calm Calm - N/A   Mist
5:28 AM 42.8 °F 42.8 °F 100% 30.05 in 0.5 mi Calm Calm - N/A Fog Fog
5:38 AM 42.8 °F 41.0 °F 93% 30.04 in 0.5 mi Calm Calm - N/A Fog Fog
5:53 AM 44.1 °F 42.1 °F 93% 30.07 in 0.5 mi Calm Calm - N/A Fog Fog
5:58 AM 44.6 °F 42.8 °F 93% 30.04 in 1.0 mi Calm Calm - N/A   Mist
6:04 AM 42.8 °F 42.8 °F 100% 30.04 in 3.0 mi Calm Calm - N/A   Mostly Cloudy
6:12 AM 42.8 °F 41.0 °F 93% 30.04 in 0.8 mi Calm Calm - N/A   Mist
6:20 AM 42.8 °F 41.0 °F 93% 30.04 in 0.5 mi Calm Calm - N/A Fog Fog
6:24 AM 42.8 °F 41.0 °F 93% 30.04 in 1.0 mi Calm Calm - N/A   Mist
6:35 AM 42.8 °F 41.0 °F 93% 30.03 in 0.5 mi Calm Calm - N/A Fog Fog
6:48 AM 42.8 °F 41.0 °F 93% 30.03 in 7.0 mi Calm Calm - N/A   Partly Cloudy
6:53 AM 43.0 °F 41.0 °F 93% 30.05 in 7.0 mi Calm Calm - N/A   Partly Cloudy
7:53 AM 43.0 °F 42.1 °F 97% 30.05 in 7.0 mi Calm Calm - N/A   Partly Cloudy
8:53 AM 48.9 °F 48.0 °F 97% 30.03 in 10.0 mi Calm Calm - N/A   Clear
9:53 AM 57.0 °F 52.0 °F 83% 30.01 in 10.0 mi Calm Calm - N/A   Clear
10:53 AM 59.0 °F 52.0 °F 78% 30.00 in 10.0 mi Calm Calm - N/A   Clear
11:53 AM 64.9 °F 53.1 °F 65% 29.98 in 10.0 mi NE 3.5 mph - N/A   Clear
12:53 PM 68.0 °F 51.1 °F 55% 29.95 in 10.0 mi West 3.5 mph - N/A   Clear
1:53 PM 69.1 °F 48.9 °F 49% 29.92 in 10.0 mi Calm Calm - N/A   Clear
2:53 PM 70.0 °F 46.0 °F 42% 29.89 in 10.0 mi Variable 5.8 mph - N/A   Clear
3:53 PM 69.1 °F 44.1 °F 40% 29.86 in 10.0 mi South 8.1 mph - N/A   Clear
4:53 PM 66.9 °F 44.1 °F 44% 29.85 in 10.0 mi SSE 9.2 mph 19.6 mph N/A   Clear
5:53 PM 69.1 °F 39.0 °F 33% 29.83 in 10.0 mi SSE 15.0 mph 24.2 mph N/A   Clear
6:53 PM 68.0 °F 41.0 °F 37% 29.83 in 10.0 mi SSE 16.1 mph 28.8 mph N/A   Clear
7:53 PM 64.0 °F 42.1 °F 45% 29.84 in 10.0 mi South 12.7 mph 23.0 mph N/A   Clear
8:53 PM 63.0 °F 42.1 °F 46% 29.83 in 10.0 mi SSE 9.2 mph 20.7 mph N/A   Clear
9:53 PM 64.9 °F 41.0 °F 42% 29.83 in 10.0 mi SSE 20.7 mph 27.6 mph N/A   Overcast
10:53 PM 64.0 °F 42.1 °F 45% 29.83 in 10.0 mi SSE 19.6 mph 29.9 mph N/A   Overcast
11:53 PM 61.0 °F 45.0 °F 56% 29.83 in 10.0 mi SSE 8.1 mph 17.3 mph 0.00 in   Overcast